Time,TemperatureF,DewpointF,PressureIn,WindDirection,WindDirectionDegrees,WindSpeedMPH,WindSpeedGustMPH,Humidity,HourlyPrecipIn,Conditions,Clouds,dailyrainin,SoftwareType,DateUTC
2013-07-20 00:03:00,63.0,56.4,30.03,NNW,338,0.0,0.0,79,0.00,,---,0.00,VWS V14.00,2013-07-20 07:03:00,
2013-07-20 00:08:00,62.8,56.2,30.03,NNW,338,0.0,0.0,79,0.00,,---,0.00,VWS V14.00,2013-07-20 07:08:00,
2013-07-20 00:13:00,62.7,56.1,30.03,NNW,338,0.0,0.0,79,0.00,,---,0.00,VWS V14.00,2013-07-20 07:13:00,
2013-07-20 00:18:00,62.5,55.9,30.03,NNW,338,0.0,0.0,79,0.00,,---,0.00,VWS V14.00,2013-07-20 07:18:00,
2013-07-20 00:23:00,62.4,55.8,30.03,NNW,338,0.0,0.0,79,0.00,,---,0.00,VWS V14.00,2013-07-20 07:23:00,
2013-07-20 00:28:00,62.2,56.0,30.03,NNW,338,0.0,0.0,80,0.00,,---,0.00,VWS V14.00,2013-07-20 07:28:00,
2013-07-20 00:33:00,62.0,55.8,30.03,NNW,338,0.0,0.0,80,0.00,,---,0.00,VWS V14.00,2013-07-20 07:33:00,
2013-07-20 00:38:00,61.9,56.0,30.03,NNW,338,0.0,0.0,81,0.00,,---,0.00,VWS V14.00,2013-07-20 07:38:00,
2013-07-20 00:43:00,61.8,55.9,30.03,NNW,338,0.0,0.0,81,0.00,,---,0.00,VWS V14.00,2013-07-20 07:43:00,
2013-07-20 00:48:00,61.6,55.7,30.03,NNW,338,0.0,0.0,81,0.00,,---,0.00,VWS V14.00,2013-07-20 07:48:00,
2013-07-20 00:53:00,61.5,56.0,30.03,NNW,338,0.0,1.0,82,0.00,,---,0.00,VWS V14.00,2013-07-20 07:53:00,
2013-07-20 00:58:00,61.4,55.9,30.03,NNW,338,0.0,1.0,82,0.00,,---,0.00,VWS V14.00,2013-07-20 07:58:00,
2013-07-20 01:03:00,61.2,55.7,30.03,NNW,338,0.0,0.0,82,0.00,,---,0.00,VWS V14.00,2013-07-20 08:03:00,
2013-07-20 01:08:00,61.1,55.9,30.03,NNW,338,0.0,0.0,83,0.00,,---,0.00,VWS V14.00,2013-07-20 08:08:00,
2013-07-20 01:13:00,60.9,55.4,30.03,NNW,338,0.0,0.0,82,0.00,,---,0.00,VWS V14.00,2013-07-20 08:13:00,
2013-07-20 01:18:00,60.8,55.6,30.03,NNW,338,0.0,0.0,83,0.00,,---,0.00,VWS V14.00,2013-07-20 08:18:00,
2013-07-20 01:23:00,60.7,55.5,30.04,NNW,338,0.0,0.0,83,0.00,,---,0.00,VWS V14.00,2013-07-20 08:23:00,
2013-07-20 01:28:00,60.5,55.7,30.03,NNW,338,0.0,0.0,84,0.00,,---,0.00,VWS V14.00,2013-07-20 08:28:00,
2013-07-20 01:33:00,60.4,55.5,30.04,NNW,338,0.0,0.0,84,0.00,,---,0.00,VWS V14.00,2013-07-20 08:33:00,
2013-07-20 01:38:00,60.2,55.3,30.03,NNW,338,0.0,0.0,84,0.00,,---,0.00,VWS V14.00,2013-07-20 08:38:00,
2013-07-20 01:43:00,60.0,55.2,30.04,NNW,338,0.0,0.0,84,0.00,,---,0.00,VWS V14.00,2013-07-20 08:43:00,
2013-07-20 01:48:00,59.9,55.4,30.03,NNW,338,1.0,1.0,85,0.00,,---,0.00,VWS V14.00,2013-07-20 08:48:00,
2013-07-20 01:53:00,59.8,55.3,30.03,NNW,338,0.0,1.0,85,0.00,,---,0.00,VWS V14.00,2013-07-20 08:53:00,
2013-07-20 01:58:00,59.6,54.8,30.03,NNW,338,0.0,1.0,84,0.00,,---,0.00,VWS V14.00,2013-07-20 08:58:00,
2013-07-20 02:03:00,59.5,54.7,30.03,NNW,338,0.0,0.0,84,0.00,,---,0.00,VWS V14.00,2013-07-20 09:03:00,
2013-07-20 02:08:00,59.4,55.2,30.03,NNW,338,0.0,0.0,86,0.00,,---,0.00,VWS V14.00,2013-07-20 09:08:00,
2013-07-20 02:13:00,59.3,54.8,30.03,NNW,331,0.0,2.0,85,0.00,,---,0.00,VWS V14.00,2013-07-20 09:13:00,
2013-07-20 02:18:00,59.2,54.7,30.03,NNW,331,0.0,2.0,85,0.00,,---,0.00,VWS V14.00,2013-07-20 09:18:00,
2013-07-20 02:23:00,59.2,54.7,30.03,NNW,331,0.0,2.0,85,0.00,,---,0.00,VWS V14.00,2013-07-20 09:23:00,
2013-07-20 02:29:00,59.1,54.6,30.03,NNW,331,0.0,2.0,85,0.00,,---,0.00,VWS V14.00,2013-07-20 09:29:00,
2013-07-20 02:34:00,58.9,54.4,30.03,NNW,331,0.0,0.0,85,0.00,,---,0.00,VWS V14.00,2013-07-20 09:34:00,
2013-07-20 02:39:00,58.9,54.7,30.03,NNW,331,0.0,0.0,86,0.00,,---,0.00,VWS V14.00,2013-07-20 09:39:00,
2013-07-20 02:44:00,58.8,54.6,30.03,NNW,331,0.0,0.0,86,0.00,,---,0.00,VWS V14.00,2013-07-20 09:44:00,
2013-07-20 02:49:00,58.8,54.6,30.04,NNW,331,0.0,0.0,86,0.00,,---,0.00,VWS V14.00,2013-07-20 09:49:00,
2013-07-20 02:54:00,58.7,54.5,30.03,NNW,331,0.0,0.0,86,0.00,,---,0.00,VWS V14.00,2013-07-20 09:54:00,
2013-07-20 02:59:00,58.7,54.5,30.04,NNW,331,0.0,0.0,86,0.00,,---,0.00,VWS V14.00,2013-07-20 09:59:00,
2013-07-20 03:04:00,58.6,54.4,30.04,NNW,331,0.0,0.0,86,0.00,,---,0.00,VWS V14.00,2013-07-20 10:04:00,
2013-07-20 03:09:00,58.5,54.3,30.04,NNW,331,0.0,0.0,86,0.00,,---,0.00,VWS V14.00,2013-07-20 10:09:00,
2013-07-20 03:14:00,58.4,54.2,30.04,NNW,331,0.0,0.0,86,0.00,,---,0.00,VWS V14.00,2013-07-20 10:14:00,
2013-07-20 03:19:00,58.3,54.1,30.04,NNW,331,0.0,0.0,86,0.00,,---,0.00,VWS V14.00,2013-07-20 10:19:00,
2013-07-20 03:24:00,58.2,54.0,30.04,NNW,331,0.0,0.0,86,0.00,,---,0.00,VWS V14.00,2013-07-20 10:24:00,
2013-07-20 03:29:00,58.0,53.8,30.04,NNW,331,0.0,0.0,86,0.00,,---,0.00,VWS V14.00,2013-07-20 10:29:00,
2013-07-20 03:34:00,57.9,54.1,30.04,NNW,331,0.0,0.0,87,0.00,,---,0.00,VWS V14.00,2013-07-20 10:34:00,
2013-07-20 03:39:00,57.9,54.7,30.04,NNW,331,0.0,1.0,89,0.00,,---,0.00,VWS V14.00,2013-07-20 10:39:00,
2013-07-20 03:44:00,57.8,54.3,30.04,NNW,331,0.0,1.0,88,0.00,,---,0.00,VWS V14.00,2013-07-20 10:44:00,
2013-07-20 03:49:00,57.6,54.1,30.04,NNW,331,0.0,1.0,88,0.00,,---,0.00,VWS V14.00,2013-07-20 10:49:00,
2013-07-20 03:54:00,57.4,53.9,30.04,NNW,331,0.0,1.0,88,0.00,,---,0.00,VWS V14.00,2013-07-20 10:54:00,
2013-07-20 03:59:00,57.1,53.6,30.04,NNW,331,0.0,1.0,88,0.00,,---,0.00,VWS V14.00,2013-07-20 10:59:00,
2013-07-20 04:04:00,56.9,53.4,30.04,NNW,331,0.0,0.0,88,0.00,,---,0.00,VWS V14.00,2013-07-20 11:04:00,
2013-07-20 04:09:00,56.8,53.3,30.04,NNW,331,0.0,0.0,88,0.00,,---,0.00,VWS V14.00,2013-07-20 11:09:00,
2013-07-20 04:14:00,56.6,53.1,30.04,NNW,331,0.0,0.0,88,0.00,,---,0.00,VWS V14.00,2013-07-20 11:14:00,
2013-07-20 04:19:00,56.4,53.2,30.04,NNW,331,0.0,0.0,89,0.00,,---,0.00,VWS V14.00,2013-07-20 11:19:00,
2013-07-20 04:24:00,56.3,53.1,30.04,NNW,331,0.0,0.0,89,0.00,,---,0.00,VWS V14.00,2013-07-20 11:24:00,
2013-07-20 04:29:00,56.1,52.9,30.04,NNW,331,0.0,0.0,89,0.00,,---,0.00,VWS V14.00,2013-07-20 11:29:00,
2013-07-20 04:34:00,56.0,52.8,30.05,NNW,331,0.0,0.0,89,0.00,,---,0.00,VWS V14.00,2013-07-20 11:34:00,
2013-07-20 04:39:00,55.8,52.6,30.04,NNW,331,0.0,0.0,89,0.00,,---,0.00,VWS V14.00,2013-07-20 11:39:00,
2013-07-20 04:44:00,55.7,52.5,30.04,NNW,331,0.0,0.0,89,0.00,,---,0.00,VWS V14.00,2013-07-20 11:44:00,
2013-07-20 04:49:00,55.6,52.7,30.04,NNW,331,0.0,0.0,90,0.00,,---,0.00,VWS V14.00,2013-07-20 11:49:00,
2013-07-20 04:54:00,55.4,52.5,30.05,NNW,331,0.0,0.0,90,0.00,,---,0.00,VWS V14.00,2013-07-20 11:54:00,
2013-07-20 04:59:00,55.3,52.4,30.05,NNW,331,0.0,0.0,90,0.00,,---,0.00,VWS V14.00,2013-07-20 11:59:00,
2013-07-20 05:04:00,55.2,52.3,30.05,NNW,331,0.0,0.0,90,0.00,,---,0.00,VWS V14.00,2013-07-20 12:04:00,
2013-07-20 05:09:00,55.1,52.2,30.05,NNW,331,0.0,1.0,90,0.00,,---,0.00,VWS V14.00,2013-07-20 12:09:00,
2013-07-20 05:14:00,55.0,52.1,30.05,NNW,331,0.0,1.0,90,0.00,,---,0.00,VWS V14.00,2013-07-20 12:14:00,
2013-07-20 05:19:00,54.9,52.3,30.05,NNW,331,0.0,1.0,91,0.00,,---,0.00,VWS V14.00,2013-07-20 12:19:00,
2013-07-20 05:24:00,54.8,52.2,30.05,NNW,331,0.0,1.0,91,0.00,,---,0.00,VWS V14.00,2013-07-20 12:24:00,
2013-07-20 05:30:00,54.6,52.0,30.05,NNW,331,0.0,1.0,91,0.00,,---,0.00,VWS V14.00,2013-07-20 12:30:00,
2013-07-20 05:35:00,54.5,51.9,30.05,NNW,331,0.0,0.0,91,0.00,,---,0.00,VWS V14.00,2013-07-20 12:35:00,
2013-07-20 05:40:00,54.4,51.8,30.05,NNW,331,0.0,0.0,91,0.00,,---,0.00,VWS V14.00,2013-07-20 12:40:00,
2013-07-20 05:45:00,54.3,51.7,30.05,NNW,331,0.0,2.0,91,0.00,,---,0.00,VWS V14.00,2013-07-20 12:45:00,
2013-07-20 05:50:00,54.2,51.6,30.05,NNW,327,1.0,2.0,91,0.00,,---,0.00,VWS V14.00,2013-07-20 12:50:00,
2013-07-20 05:55:00,54.1,51.8,30.05,NNW,327,0.0,2.0,92,0.00,,---,0.00,VWS V14.00,2013-07-20 12:55:00,
2013-07-20 06:00:00,54.1,51.8,30.05,NW,323,0.0,2.0,92,0.00,,---,0.00,VWS V14.00,2013-07-20 13:00:00,
2013-07-20 06:05:00,54.1,51.8,30.05,WNW,286,0.0,2.0,92,0.00,,---,0.00,VWS V14.00,2013-07-20 13:05:00,
2013-07-20 06:10:00,54.1,51.8,30.05,NW,307,0.0,2.0,92,0.00,,---,0.00,VWS V14.00,2013-07-20 13:10:00,
2013-07-20 06:15:00,54.2,52.2,30.05,NW,306,0.0,2.0,93,0.00,,---,0.00,VWS V14.00,2013-07-20 13:15:00,
2013-07-20 06:20:00,54.3,52.0,30.06,NW,317,1.0,3.0,92,0.00,,---,0.00,VWS V14.00,2013-07-20 13:20:00,
2013-07-20 06:25:00,54.3,52.0,30.06,NW,321,0.0,3.0,92,0.00,,---,0.00,VWS V14.00,2013-07-20 13:25:00,
2013-07-20 06:30:00,54.3,52.0,30.06,NW,312,1.0,3.0,92,0.00,,---,0.00,VWS V14.00,2013-07-20 13:30:00,
2013-07-20 06:35:00,54.4,52.1,30.05,NW,312,0.0,2.0,92,0.00,,---,0.00,VWS V14.00,2013-07-20 13:35:00,
2013-07-20 06:40:00,54.4,52.4,30.06,NW,312,1.0,2.0,93,0.00,,---,0.00,VWS V14.00,2013-07-20 13:40:00,
2013-07-20 06:45:00,54.6,52.6,30.06,NW,321,1.0,4.0,93,0.00,,---,0.00,VWS V14.00,2013-07-20 13:45:00,
2013-07-20 06:50:00,54.8,52.8,30.06,North,349,2.0,7.0,93,0.00,,---,0.00,VWS V14.00,2013-07-20 13:50:00,
2013-07-20 06:55:00,55.1,53.1,30.06,NW,316,0.0,7.0,93,0.00,,---,0.00,VWS V14.00,2013-07-20 13:55:00,
2013-07-20 07:00:00,55.2,53.2,30.06,NW,315,4.0,7.0,93,0.00,,---,0.00,VWS V14.00,2013-07-20 14:00:00,
2013-07-20 07:05:00,55.3,53.3,30.06,NNW,347,4.0,6.0,93,0.00,,---,0.00,VWS V14.00,2013-07-20 14:05:00,
2013-07-20 07:10:00,55.5,53.5,30.06,WNW,300,2.0,6.0,93,0.00,,---,0.00,VWS V14.00,2013-07-20 14:10:00,
2013-07-20 07:15:00,55.8,53.8,30.06,NW,324,3.0,7.0,93,0.00,,---,0.00,VWS V14.00,2013-07-20 14:15:00,
2013-07-20 07:20:00,56.0,54.0,30.06,NW,306,1.0,7.0,93,0.00,,---,0.00,VWS V14.00,2013-07-20 14:20:00,
2013-07-20 07:25:00,56.3,54.0,30.06,NW,325,1.0,7.0,92,0.00,,---,0.00,VWS V14.00,2013-07-20 14:25:00,
2013-07-20 07:30:00,56.5,54.5,30.06,NNE,32,1.0,7.0,93,0.00,,---,0.00,VWS V14.00,2013-07-20 14:30:00,
2013-07-20 07:35:00,56.8,54.5,30.06,NNW,330,0.0,7.0,92,0.00,,---,0.00,VWS V14.00,2013-07-20 14:35:00,
2013-07-20 07:40:00,56.9,54.6,30.06,NW,309,3.0,7.0,92,0.00,,---,0.00,VWS V14.00,2013-07-20 14:40:00,
2013-07-20 07:45:00,57.0,54.4,30.06,NNW,328,0.0,8.0,91,0.00,,---,0.00,VWS V14.00,2013-07-20 14:45:00,
2013-07-20 07:50:00,57.2,54.6,30.06,WNW,299,1.0,8.0,91,0.00,,---,0.00,VWS V14.00,2013-07-20 14:50:00,
2013-07-20 07:55:00,57.4,54.8,30.06,NNW,345,1.0,8.0,91,0.00,,---,0.00,VWS V14.00,2013-07-20 14:55:00,
2013-07-20 08:00:00,57.6,55.0,30.06,WNW,298,1.0,8.0,91,0.00,,---,0.00,VWS V14.00,2013-07-20 15:00:00,
2013-07-20 08:05:00,57.8,54.9,30.06,NW,312,1.0,2.0,90,0.00,,---,0.00,VWS V14.00,2013-07-20 15:05:00,
2013-07-20 08:10:00,58.0,55.1,30.06,NNW,330,1.0,7.0,90,0.00,,---,0.00,VWS V14.00,2013-07-20 15:10:00,
2013-07-20 08:16:00,58.2,55.0,30.06,WNW,301,3.0,7.0,89,0.00,,---,0.00,VWS V14.00,2013-07-20 15:16:00,
2013-07-20 08:21:00,58.4,55.2,30.06,NNW,330,2.0,7.0,89,0.00,,---,0.00,VWS V14.00,2013-07-20 15:21:00,
2013-07-20 08:26:00,58.5,55.0,30.06,NW,325,3.0,8.0,88,0.00,,---,0.00,VWS V14.00,2013-07-20 15:26:00,
2013-07-20 08:31:00,58.6,55.1,30.06,NW,309,2.0,8.0,88,0.00,,---,0.00,VWS V14.00,2013-07-20 15:31:00,
2013-07-20 08:36:00,58.7,55.2,30.06,NNW,333,2.0,7.0,88,0.00,,---,0.00,VWS V14.00,2013-07-20 15:36:00,
2013-07-20 08:41:00,58.9,55.4,30.06,NW,323,1.0,7.0,88,0.00,,---,0.00,VWS V14.00,2013-07-20 15:41:00,
2013-07-20 08:46:00,59.2,55.3,30.06,NNW,329,4.0,7.0,87,0.00,,---,0.00,VWS V14.00,2013-07-20 15:46:00,
2013-07-20 08:51:00,59.4,55.5,30.06,NNW,329,0.0,7.0,87,0.00,,---,0.00,VWS V14.00,2013-07-20 15:51:00,
2013-07-20 08:56:00,59.7,55.8,30.06,NW,313,5.0,10.0,87,0.00,,---,0.00,VWS V14.00,2013-07-20 15:56:00,
2013-07-20 09:01:00,59.6,55.4,30.06,WNW,302,4.0,10.0,86,0.00,,---,0.00,VWS V14.00,2013-07-20 16:01:00,
2013-07-20 09:06:00,59.6,55.4,30.06,WNW,285,5.0,11.0,86,0.00,,---,0.00,VWS V14.00,2013-07-20 16:06:00,
2013-07-20 09:11:00,59.8,55.9,30.06,NNW,340,6.0,11.0,87,0.00,,---,0.00,VWS V14.00,2013-07-20 16:11:00,
2013-07-20 09:16:00,60.1,55.6,30.06,West,267,2.0,11.0,85,0.00,,---,0.00,VWS V14.00,2013-07-20 16:16:00,
2013-07-20 09:21:00,60.4,55.9,30.06,NW,314,5.0,11.0,85,0.00,,---,0.00,VWS V14.00,2013-07-20 16:21:00,
2013-07-20 09:26:00,60.5,55.7,30.06,NNW,327,0.0,11.0,84,0.00,,---,0.00,VWS V14.00,2013-07-20 16:26:00,
2013-07-20 09:31:00,61.0,56.5,30.06,North,350,2.0,11.0,85,0.00,,---,0.00,VWS V14.00,2013-07-20 16:31:00,
2013-07-20 09:36:00,61.0,56.1,30.06,WNW,297,2.0,11.0,84,0.00,,---,0.00,VWS V14.00,2013-07-20 16:36:00,
2013-07-20 09:41:00,61.3,56.4,30.06,NNW,344,1.0,11.0,84,0.00,,---,0.00,VWS V14.00,2013-07-20 16:41:00,
2013-07-20 09:46:00,61.3,55.8,30.06,NNE,13,1.0,11.0,82,0.00,,---,0.00,VWS V14.00,2013-07-20 16:46:00,
2013-07-20 09:51:00,61.1,55.9,30.06,NNW,329,6.0,11.0,83,0.00,,---,0.00,VWS V14.00,2013-07-20 16:51:00,
2013-07-20 09:56:00,61.1,56.2,30.06,NE,35,0.0,11.0,84,0.00,,---,0.00,VWS V14.00,2013-07-20 16:56:00,
2013-07-20 10:01:00,61.3,56.4,30.06,NW,314,3.0,11.0,84,0.00,,---,0.00,VWS V14.00,2013-07-20 17:01:00,
2013-07-20 10:06:00,61.8,57.6,30.06,NE,49,1.0,5.0,86,0.00,,---,0.00,VWS V14.00,2013-07-20 17:06:00,
2013-07-20 10:11:00,62.2,56.6,30.06,North,360,2.0,10.0,82,0.00,,---,0.00,VWS V14.00,2013-07-20 17:11:00,
2013-07-20 10:16:00,62.4,56.5,30.06,WNW,286,3.0,10.0,81,0.00,,---,0.00,VWS V14.00,2013-07-20 17:16:00,
2013-07-20 10:21:00,62.4,56.8,30.06,NW,307,2.0,10.0,82,0.00,,---,0.00,VWS V14.00,2013-07-20 17:21:00,
2013-07-20 10:26:00,62.7,57.1,30.06,NNW,338,1.0,11.0,82,0.00,,---,0.00,VWS V14.00,2013-07-20 17:26:00,
2013-07-20 10:31:00,62.4,56.5,30.06,NW,315,1.0,11.0,81,0.00,,---,0.00,VWS V14.00,2013-07-20 17:31:00,
2013-07-20 10:36:00,62.5,56.9,30.06,WNW,302,4.0,6.0,82,0.00,,---,0.00,VWS V14.00,2013-07-20 17:36:00,
2013-07-20 10:41:00,62.7,57.5,30.06,NE,40,3.0,7.0,83,0.00,,---,0.00,VWS V14.00,2013-07-20 17:41:00,
2013-07-20 10:46:00,62.9,57.0,30.06,NE,42,1.0,10.0,81,0.00,,---,0.00,VWS V14.00,2013-07-20 17:46:00,
2013-07-20 10:51:00,63.0,57.4,30.06,North,351,2.0,10.0,82,0.00,,---,0.00,VWS V14.00,2013-07-20 17:51:00,
2013-07-20 10:56:00,63.0,57.1,30.06,ENE,60,1.0,10.0,81,0.00,,---,0.00,VWS V14.00,2013-07-20 17:56:00,
2013-07-20 11:01:00,63.1,57.5,30.06,NE,41,1.0,10.0,82,0.00,,---,0.00,VWS V14.00,2013-07-20 18:01:00,
2013-07-20 11:06:00,63.3,57.4,30.06,NE,41,3.0,8.0,81,0.00,,---,0.00,VWS V14.00,2013-07-20 18:06:00,
2013-07-20 11:11:00,63.0,56.7,30.06,NNW,347,3.0,11.0,80,0.00,,---,0.00,VWS V14.00,2013-07-20 18:11:00,
2013-07-20 11:16:00,63.0,57.1,30.05,NNW,347,1.0,11.0,81,0.00,,---,0.00,VWS V14.00,2013-07-20 18:16:00,
2013-07-20 11:22:00,63.2,56.9,30.05,NW,323,3.0,11.0,80,0.00,,---,0.00,VWS V14.00,2013-07-20 18:22:00,
2013-07-20 11:27:00,63.3,57.7,30.05,WNW,286,6.0,11.0,82,0.00,,---,0.00,VWS V14.00,2013-07-20 18:27:00,
2013-07-20 11:32:00,63.5,57.2,30.05,WNW,299,4.0,11.0,80,0.00,,---,0.00,VWS V14.00,2013-07-20 18:32:00,
2013-07-20 11:37:00,63.6,57.7,30.05,NE,54,3.0,9.0,81,0.00,,---,0.00,VWS V14.00,2013-07-20 18:37:00,
2013-07-20 11:42:00,64.1,57.8,30.05,NNW,331,4.0,9.0,80,0.00,,---,0.00,VWS V14.00,2013-07-20 18:42:00,
2013-07-20 11:47:00,64.7,58.0,30.05,NW,316,8.0,10.0,79,0.00,,---,0.00,VWS V14.00,2013-07-20 18:47:00,
2013-07-20 11:52:00,65.0,58.0,30.04,NW,306,6.0,10.0,78,0.00,,---,0.00,VWS V14.00,2013-07-20 18:52:00,
2013-07-20 11:57:00,65.0,57.6,30.04,NW,312,3.0,10.0,77,0.00,,---,0.00,VWS V14.00,2013-07-20 18:57:00,
2013-07-20 12:02:00,65.6,58.2,30.04,West,269,2.0,4.0,77,0.00,,---,0.00,VWS V14.00,2013-07-20 19:02:00,
2013-07-20 12:07:00,66.1,58.7,30.04,WSW,238,3.0,9.0,77,0.00,,---,0.00,VWS V14.00,2013-07-20 19:07:00,
2013-07-20 12:13:00,66.7,58.9,30.04,NW,317,1.0,9.0,76,0.00,,---,0.00,VWS V14.00,2013-07-20 19:13:00,
2013-07-20 12:18:00,67.3,58.7,30.04,West,263,4.0,9.0,74,0.00,,---,0.00,VWS V14.00,2013-07-20 19:18:00,
2013-07-20 12:23:00,67.2,58.6,30.04,NNE,33,1.0,9.0,74,0.00,,---,0.00,VWS V14.00,2013-07-20 19:23:00,
2013-07-20 12:28:00,67.3,59.1,30.03,NW,308,2.0,9.0,75,0.00,,---,0.00,VWS V14.00,2013-07-20 19:28:00,
2013-07-20 12:33:00,67.4,59.2,30.03,NW,316,3.0,5.0,75,0.00,,---,0.00,VWS V14.00,2013-07-20 19:33:00,
2013-07-20 12:38:00,67.8,59.2,30.03,NNW,342,2.0,6.0,74,0.00,,---,0.00,VWS V14.00,2013-07-20 19:38:00,
2013-07-20 12:43:00,68.2,59.2,30.03,North,355,2.0,6.0,73,0.00,,---,0.00,VWS V14.00,2013-07-20 19:43:00,
2013-07-20 12:48:00,68.5,58.7,30.03,NW,320,2.0,9.0,71,0.00,,---,0.00,VWS V14.00,2013-07-20 19:48:00,
2013-07-20 12:53:00,68.5,59.1,30.02,NW,315,0.0,10.0,72,0.00,,---,0.00,VWS V14.00,2013-07-20 19:53:00,
2013-07-20 12:58:00,68.8,60.2,30.02,NE,42,0.0,10.0,74,0.00,,---,0.00,VWS V14.00,2013-07-20 19:58:00,
2013-07-20 13:03:00,69.4,59.2,30.02,NNW,328,2.0,8.0,70,0.00,,---,0.00,VWS V14.00,2013-07-20 20:03:00,
2013-07-20 13:08:00,69.6,59.0,30.02,NW,317,4.0,9.0,69,0.00,,---,0.00,VWS V14.00,2013-07-20 20:08:00,
2013-07-20 13:13:00,69.7,60.3,30.02,WNW,302,2.0,9.0,72,0.00,,---,0.00,VWS V14.00,2013-07-20 20:13:00,
2013-07-20 13:19:00,70.1,59.9,30.02,NW,313,4.0,9.0,70,0.00,,---,0.00,VWS V14.00,2013-07-20 20:19:00,
2013-07-20 13:24:00,70.3,60.5,30.02,NNE,12,4.0,9.0,71,0.00,,---,0.00,VWS V14.00,2013-07-20 20:24:00,
2013-07-20 13:29:00,70.7,59.6,30.02,NNW,333,0.0,11.0,68,0.00,,---,0.00,VWS V14.00,2013-07-20 20:29:00,
2013-07-20 13:34:00,71.0,59.5,30.01,North,355,3.0,8.0,67,0.00,,---,0.00,VWS V14.00,2013-07-20 20:34:00,
2013-07-20 13:39:00,71.2,60.1,30.01,NNW,336,3.0,10.0,68,0.00,,---,0.00,VWS V14.00,2013-07-20 20:39:00,
2013-07-20 13:45:00,71.5,60.8,30.01,NE,45,4.0,10.0,69,0.00,,---,0.00,VWS V14.00,2013-07-20 20:45:00,
2013-07-20 13:50:00,71.7,60.6,30.01,ENE,67,2.0,10.0,68,0.00,,---,0.00,VWS V14.00,2013-07-20 20:50:00,
2013-07-20 13:55:00,72.2,59.8,30.01,WNW,296,5.0,11.0,65,0.00,,---,0.00,VWS V14.00,2013-07-20 20:55:00,
2013-07-20 14:00:00,72.3,61.6,30.01,WNW,299,2.0,11.0,69,0.00,,---,0.00,VWS V14.00,2013-07-20 21:00:00,
2013-07-20 14:05:00,72.8,61.2,30.01,NW,309,3.0,7.0,67,0.00,,---,0.00,VWS V14.00,2013-07-20 21:05:00,
2013-07-20 14:10:00,73.1,61.1,30.00,WNW,301,4.0,7.0,66,0.00,,---,0.00,VWS V14.00,2013-07-20 21:10:00,
2013-07-20 14:15:00,73.5,60.6,30.00,NW,304,8.0,8.0,64,0.00,,---,0.00,VWS V14.00,2013-07-20 21:15:00,
2013-07-20 14:20:00,73.6,60.7,30.00,ENE,67,5.0,10.0,64,0.00,,---,0.00,VWS V14.00,2013-07-20 21:20:00,
2013-07-20 14:25:00,73.9,61.0,30.00,NNW,338,1.0,10.0,64,0.00,,---,0.00,VWS V14.00,2013-07-20 21:25:00,
2013-07-20 14:30:00,74.1,60.7,30.00,NNW,329,2.0,10.0,63,0.00,,---,0.00,VWS V14.00,2013-07-20 21:30:00,
2013-07-20 14:35:00,74.4,61.0,30.00,NNW,331,1.0,11.0,63,0.00,,---,0.00,VWS V14.00,2013-07-20 21:35:00,
2013-07-20 14:40:00,74.8,61.4,29.99,North,5,2.0,11.0,63,0.00,,---,0.00,VWS V14.00,2013-07-20 21:40:00,
2013-07-20 14:45:00,75.3,61.8,29.99,North,9,2.0,11.0,63,0.00,,---,0.00,VWS V14.00,2013-07-20 21:45:00,
2013-07-20 14:50:00,75.6,61.2,29.99,North,5,5.0,11.0,61,0.00,,---,0.00,VWS V14.00,2013-07-20 21:50:00,
2013-07-20 14:56:00,75.8,61.4,29.99,WNW,290,3.0,11.0,61,0.00,,---,0.00,VWS V14.00,2013-07-20 21:56:00,
2013-07-20 15:01:00,76.2,61.3,29.99,NNW,332,8.0,13.0,60,0.00,,---,0.00,VWS V14.00,2013-07-20 22:01:00,
2013-07-20 15:06:00,76.3,61.9,29.98,West,271,3.0,8.0,61,0.00,,---,0.00,VWS V14.00,2013-07-20 22:06:00,
2013-07-20 15:11:00,76.7,61.8,29.98,WNW,290,3.0,8.0,60,0.00,,---,0.00,VWS V14.00,2013-07-20 22:11:00,
2013-07-20 15:16:00,77.0,61.6,29.98,WNW,292,5.0,8.0,59,0.00,,---,0.00,VWS V14.00,2013-07-20 22:16:00,
2013-07-20 15:21:00,77.5,63.0,29.98,NNE,17,4.0,8.0,61,0.00,,---,0.00,VWS V14.00,2013-07-20 22:21:00,
2013-07-20 15:26:00,77.7,61.3,29.98,NNW,336,5.0,10.0,57,0.00,,---,0.00,VWS V14.00,2013-07-20 22:26:00,
2013-07-20 15:31:00,77.6,60.2,29.98,NW,314,4.0,12.0,55,0.00,,---,0.00,VWS V14.00,2013-07-20 22:31:00,
2013-07-20 15:36:00,77.3,60.4,29.98,North,355,6.0,11.0,56,0.00,,---,0.00,VWS V14.00,2013-07-20 22:36:00,
2013-07-20 15:41:00,77.6,63.6,29.97,SW,215,2.0,11.0,62,0.00,,---,0.00,VWS V14.00,2013-07-20 22:41:00,
2013-07-20 15:46:00,78.1,62.1,29.97,NW,321,5.0,11.0,58,0.00,,---,0.00,VWS V14.00,2013-07-20 22:46:00,
2013-07-20 15:51:00,78.4,62.4,29.97,NNW,328,2.0,11.0,58,0.00,,---,0.00,VWS V14.00,2013-07-20 22:51:00,
2013-07-20 15:56:00,78.7,62.2,29.96,WNW,284,4.0,11.0,57,0.00,,---,0.00,VWS V14.00,2013-07-20 22:56:00,
2013-07-20 16:01:00,78.5,61.0,29.96,NNW,344,4.0,11.0,55,0.00,,---,0.00,VWS V14.00,2013-07-20 23:01:00,
2013-07-20 16:06:00,78.5,61.5,29.96,NNW,329,4.0,9.0,56,0.00,,---,0.00,VWS V14.00,2013-07-20 23:06:00,
2013-07-20 16:11:00,78.6,61.1,29.96,NW,313,3.0,10.0,55,0.00,,---,0.00,VWS V14.00,2013-07-20 23:11:00,
2013-07-20 16:16:00,78.7,60.7,29.96,North,9,2.0,11.0,54,0.00,,---,0.00,VWS V14.00,2013-07-20 23:16:00,
2013-07-20 16:21:00,78.6,60.6,29.96,NNE,13,1.0,12.0,54,0.00,,---,0.00,VWS V14.00,2013-07-20 23:21:00,
2013-07-20 16:26:00,78.8,61.3,29.95,NW,321,3.0,12.0,55,0.00,,---,0.00,VWS V14.00,2013-07-20 23:26:00,
2013-07-20 16:31:00,79.2,61.1,29.95,NW,323,6.0,12.0,54,0.00,,---,0.00,VWS V14.00,2013-07-20 23:31:00,
2013-07-20 16:36:00,79.4,61.3,29.95,West,265,6.0,12.0,54,0.00,,---,0.00,VWS V14.00,2013-07-20 23:36:00,
2013-07-20 16:42:00,79.5,61.4,29.95,NNE,13,3.0,12.0,54,0.00,,---,0.00,VWS V14.00,2013-07-20 23:42:00,
2013-07-20 16:47:00,79.7,61.6,29.94,NNW,347,4.0,12.0,54,0.00,,---,0.00,VWS V14.00,2013-07-20 23:47:00,
2013-07-20 16:52:00,79.9,61.8,29.94,WNW,290,2.0,12.0,54,0.00,,---,0.00,VWS V14.00,2013-07-20 23:52:00,
2013-07-20 16:57:00,80.0,61.3,29.94,NNW,333,6.0,12.0,53,0.00,,---,0.00,VWS V14.00,2013-07-20 23:57:00,
2013-07-20 17:02:00,79.9,61.3,29.94,NNW,333,2.0,5.0,53,0.00,,---,0.00,VWS V14.00,2013-07-21 00:02:00,
2013-07-20 17:08:00,79.9,61.3,29.94,North,355,1.0,8.0,53,0.00,,---,0.00,VWS V14.00,2013-07-21 00:08:00,
2013-07-20 17:13:00,80.0,61.3,29.93,WNW,298,1.0,8.0,53,0.00,,---,0.00,VWS V14.00,2013-07-21 00:13:00,
2013-07-20 17:18:00,80.0,60.8,29.93,NW,318,3.0,9.0,52,0.00,,---,0.00,VWS V14.00,2013-07-21 00:18:00,
2013-07-20 17:23:00,80.0,60.8,29.94,NW,311,2.0,9.0,52,0.00,,---,0.00,VWS V14.00,2013-07-21 00:23:00,
2013-07-20 17:28:00,80.0,60.8,29.94,NW,311,2.0,9.0,52,0.00,,---,0.00,VWS V14.00,2013-07-21 00:28:00,
2013-07-20 17:33:00,79.9,60.2,29.93,NNW,346,6.0,9.0,51,0.00,,---,0.00,VWS V14.00,2013-07-21 00:33:00,
2013-07-20 17:38:00,79.5,60.3,29.93,NW,325,6.0,12.0,52,0.00,,---,0.00,VWS V14.00,2013-07-21 00:38:00,
2013-07-20 17:43:00,79.5,61.4,29.93,North,355,4.0,12.0,54,0.00,,---,0.00,VWS V14.00,2013-07-21 00:43:00,
2013-07-20 17:48:00,79.8,61.2,29.93,NE,35,4.0,12.0,53,0.00,,---,0.00,VWS V14.00,2013-07-21 00:48:00,
2013-07-20 17:54:00,80.0,60.8,29.93,NNW,343,0.0,12.0,52,0.00,,---,0.00,VWS V14.00,2013-07-21 00:54:00,
2013-07-20 17:59:00,79.9,60.2,29.93,NW,323,2.0,12.0,51,0.00,,---,0.00,VWS V14.00,2013-07-21 00:59:00,
2013-07-20 18:04:00,79.8,61.7,29.93,West,267,6.0,8.0,54,0.00,,---,0.00,VWS V14.00,2013-07-21 01:04:00,
2013-07-20 18:09:00,79.8,61.2,29.92,NW,311,2.0,8.0,53,0.00,,---,0.00,VWS V14.00,2013-07-21 01:09:00,
2013-07-20 18:14:00,79.9,60.7,29.93,NNE,32,1.0,8.0,52,0.00,,---,0.00,VWS V14.00,2013-07-21 01:14:00,
2013-07-20 18:19:00,79.7,61.6,29.93,NW,325,2.0,8.0,54,0.00,,---,0.00,VWS V14.00,2013-07-21 01:19:00,
2013-07-20 18:24:00,79.6,61.0,29.92,NW,312,3.0,8.0,53,0.00,,---,0.00,VWS V14.00,2013-07-21 01:24:00,
2013-07-20 18:29:00,79.5,60.9,29.92,North,349,1.0,8.0,53,0.00,,---,0.00,VWS V14.00,2013-07-21 01:29:00,
2013-07-20 18:34:00,79.3,60.7,29.92,NW,315,2.0,4.0,53,0.00,,---,0.00,VWS V14.00,2013-07-21 01:34:00,
2013-07-20 18:39:00,78.9,60.9,29.92,NNW,331,2.0,4.0,54,0.00,,---,0.00,VWS V14.00,2013-07-21 01:39:00,
2013-07-20 18:45:00,78.5,61.0,29.92,NW,317,1.0,6.0,55,0.00,,---,0.00,VWS V14.00,2013-07-21 01:45:00,
2013-07-20 18:50:00,78.2,61.2,29.92,NW,310,1.0,6.0,56,0.00,,---,0.00,VWS V14.00,2013-07-21 01:50:00,
2013-07-20 18:55:00,77.9,61.0,29.92,NNW,327,3.0,6.0,56,0.00,,---,0.00,VWS V14.00,2013-07-21 01:55:00,
2013-07-20 19:00:00,77.6,60.7,29.92,NNW,340,6.0,6.0,56,0.00,,---,0.00,VWS V14.00,2013-07-21 02:00:00,
2013-07-20 19:05:00,77.5,60.6,29.92,North,350,3.0,9.0,56,0.00,,---,0.00,VWS V14.00,2013-07-21 02:05:00,
2013-07-20 19:10:00,77.3,60.9,29.92,North,355,5.0,9.0,57,0.00,,---,0.00,VWS V14.00,2013-07-21 02:10:00,
2013-07-20 19:16:00,77.2,60.8,29.92,NNW,335,3.0,9.0,57,0.00,,---,0.00,VWS V14.00,2013-07-21 02:16:00,
2013-07-20 19:21:00,77.1,60.7,29.92,NW,313,6.0,9.0,57,0.00,,---,0.00,VWS V14.00,2013-07-21 02:21:00,
2013-07-20 19:26:00,77.0,60.6,29.92,North,350,2.0,9.0,57,0.00,,---,0.00,VWS V14.00,2013-07-21 02:26:00,
2013-07-20 19:31:00,76.9,61.0,29.92,NW,309,0.0,9.0,58,0.00,,---,0.00,VWS V14.00,2013-07-21 02:31:00,
2013-07-20 19:36:00,76.8,60.9,29.92,NNW,328,2.0,6.0,58,0.00,,---,0.00,VWS V14.00,2013-07-21 02:36:00,
2013-07-20 19:41:00,76.6,61.2,29.92,North,355,2.0,6.0,59,0.00,,---,0.00,VWS V14.00,2013-07-21 02:41:00,
2013-07-20 19:46:00,76.5,61.1,29.92,NNW,342,0.0,6.0,59,0.00,,---,0.00,VWS V14.00,2013-07-21 02:46:00,
2013-07-20 19:51:00,76.4,63.3,29.92,NW,318,0.0,6.0,64,0.00,,---,0.00,VWS V14.00,2013-07-21 02:51:00,
2013-07-20 19:56:00,76.1,61.7,29.92,NW,318,1.0,6.0,61,0.00,,---,0.00,VWS V14.00,2013-07-21 02:56:00,
2013-07-20 20:01:00,75.8,60.9,29.91,NW,308,0.0,6.0,60,0.00,,---,0.00,VWS V14.00,2013-07-21 03:01:00,
2013-07-20 20:06:00,75.6,61.2,29.91,WNW,292,0.0,1.0,61,0.00,,---,0.00,VWS V14.00,2013-07-21 03:06:00,
2013-07-20 20:11:00,75.4,62.4,29.92,NNW,338,0.0,3.0,64,0.00,,---,0.00,VWS V14.00,2013-07-21 03:11:00,
2013-07-20 20:16:00,75.1,63.0,29.92,NNW,338,0.0,3.0,66,0.00,,---,0.00,VWS V14.00,2013-07-21 03:16:00,
2013-07-20 20:22:00,74.6,62.5,29.91,NNW,338,0.0,3.0,66,0.00,,---,0.00,VWS V14.00,2013-07-21 03:22:00,
2013-07-20 20:27:00,74.2,63.0,29.91,NNW,338,0.0,3.0,68,0.00,,---,0.00,VWS V14.00,2013-07-21 03:27:00,
2013-07-20 20:32:00,73.8,61.7,29.91,NNW,338,0.0,3.0,66,0.00,,---,0.00,VWS V14.00,2013-07-21 03:32:00,
2013-07-20 20:37:00,73.5,61.5,29.91,NNW,338,0.0,1.0,66,0.00,,---,0.00,VWS V14.00,2013-07-21 03:37:00,
2013-07-20 20:42:00,73.2,61.2,29.91,NW,323,0.0,2.0,66,0.00,,---,0.00,VWS V14.00,2013-07-21 03:42:00,
2013-07-20 20:47:00,73.0,61.8,29.92,NW,323,0.0,2.0,68,0.00,,---,0.00,VWS V14.00,2013-07-21 03:47:00,
2013-07-20 20:52:00,72.7,61.1,29.92,NW,323,0.0,2.0,67,0.00,,---,0.00,VWS V14.00,2013-07-21 03:52:00,
2013-07-20 20:57:00,72.5,61.3,29.92,NW,323,0.0,2.0,68,0.00,,---,0.00,VWS V14.00,2013-07-21 03:57:00,
2013-07-20 21:01:00,72.3,61.2,29.92,NW,323,0.0,2.0,68,0.00,,---,0.00,VWS V14.00,2013-07-21 04:01:00,
2013-07-20 21:06:00,72.0,61.3,29.92,NW,323,0.0,0.0,69,0.00,,---,0.00,VWS V14.00,2013-07-21 04:06:00,
2013-07-20 21:11:00,71.7,61.0,29.92,NW,323,0.0,0.0,69,0.00,,---,0.00,VWS V14.00,2013-07-21 04:11:00,
2013-07-20 21:16:00,71.3,60.6,29.92,NW,323,0.0,1.0,69,0.00,,---,0.00,VWS V14.00,2013-07-21 04:16:00,
2013-07-20 21:22:00,71.0,60.7,29.92,NW,323,0.0,1.0,70,0.00,,---,0.00,VWS V14.00,2013-07-21 04:22:00,
2013-07-20 21:27:00,70.7,60.5,29.92,NW,323,0.0,1.0,70,0.00,,---,0.00,VWS V14.00,2013-07-21 04:27:00,
2013-07-20 21:32:00,70.3,60.5,29.93,NW,323,0.0,1.0,71,0.00,,---,0.00,VWS V14.00,2013-07-21 04:32:00,
2013-07-20 21:37:00,70.0,60.2,29.93,NW,319,0.0,2.0,71,0.00,,---,0.00,VWS V14.00,2013-07-21 04:37:00,
2013-07-20 21:42:00,69.7,59.9,29.93,NW,319,0.0,2.0,71,0.00,,---,0.00,VWS V14.00,2013-07-21 04:42:00,
2013-07-20 21:47:00,69.4,60.0,29.93,NNW,343,0.0,2.0,72,0.00,,---,0.00,VWS V14.00,2013-07-21 04:47:00,
2013-07-20 21:52:00,69.1,59.7,29.93,NNW,343,0.0,2.0,72,0.00,,---,0.00,VWS V14.00,2013-07-21 04:52:00,
2013-07-20 21:57:00,68.8,59.8,29.93,NNW,343,1.0,2.0,73,0.00,,---,0.00,VWS V14.00,2013-07-21 04:57:00,
2013-07-20 22:02:00,68.5,59.5,29.94,NNW,343,0.0,2.0,73,0.00,,---,0.00,VWS V14.00,2013-07-21 05:02:00,
2013-07-20 22:07:00,68.1,59.1,29.94,NNW,334,0.0,2.0,73,0.00,,---,0.00,VWS V14.00,2013-07-21 05:07:00,
2013-07-20 22:12:00,67.8,59.2,29.94,NNW,334,0.0,2.0,74,0.00,,---,0.00,VWS V14.00,2013-07-21 05:12:00,
2013-07-20 22:17:00,67.6,59.0,29.94,NNW,334,0.0,2.0,74,0.00,,---,0.00,VWS V14.00,2013-07-21 05:17:00,
2013-07-20 22:22:00,67.3,58.7,29.94,NNW,334,0.0,2.0,74,0.00,,---,0.00,VWS V14.00,2013-07-21 05:22:00,
2013-07-20 22:27:00,67.0,58.8,29.94,NNW,334,0.0,2.0,75,0.00,,---,0.00,VWS V14.00,2013-07-21 05:27:00,
2013-07-20 22:32:00,66.7,58.9,29.94,NNW,334,0.0,2.0,76,0.00,,---,0.00,VWS V14.00,2013-07-21 05:32:00,
2013-07-20 22:37:00,66.3,58.2,29.94,NNW,334,0.0,1.0,75,0.00,,---,0.00,VWS V14.00,2013-07-21 05:37:00,
2013-07-20 22:42:00,66.0,57.9,29.94,NNW,334,0.0,1.0,75,0.00,,---,0.00,VWS V14.00,2013-07-21 05:42:00,
2013-07-20 22:47:00,65.7,57.6,29.94,NNW,329,0.0,2.0,75,0.00,,---,0.00,VWS V14.00,2013-07-21 05:47:00,
2013-07-20 22:52:00,65.5,57.4,29.94,NNW,329,0.0,2.0,75,0.00,,---,0.00,VWS V14.00,2013-07-21 05:52:00,
2013-07-20 22:57:00,65.3,57.5,29.94,NNW,329,0.0,2.0,76,0.00,,---,0.00,VWS V14.00,2013-07-21 05:57:00,
2013-07-20 23:02:00,65.1,57.0,29.94,NNW,329,0.0,0.0,75,0.00,,---,0.00,VWS V14.00,2013-07-21 06:02:00,
2013-07-20 23:07:00,64.9,57.2,29.94,NNW,329,0.0,0.0,76,0.00,,---,0.00,VWS V14.00,2013-07-21 06:07:00,
2013-07-20 23:12:00,64.7,57.0,29.94,NNW,329,0.0,0.0,76,0.00,,---,0.00,VWS V14.00,2013-07-21 06:12:00,
2013-07-20 23:17:00,64.6,56.9,29.94,NNW,329,0.0,0.0,76,0.00,,---,0.00,VWS V14.00,2013-07-21 06:17:00,
2013-07-20 23:22:00,64.4,57.0,29.94,NNW,329,0.0,1.0,77,0.00,,---,0.00,VWS V14.00,2013-07-21 06:22:00,
2013-07-20 23:27:00,64.2,56.8,29.94,NNW,329,0.0,1.0,77,0.00,,---,0.00,VWS V14.00,2013-07-21 06:27:00,
2013-07-20 23:32:00,64.0,57.0,29.94,NNW,329,1.0,1.0,78,0.00,,---,0.00,VWS V14.00,2013-07-21 06:32:00,
2013-07-20 23:37:00,63.8,56.8,29.94,NNW,329,0.0,1.0,78,0.00,,---,0.00,VWS V14.00,2013-07-21 06:37:00,
2013-07-20 23:42:00,63.7,56.7,29.94,NNW,329,0.0,1.0,78,0.00,,---,0.00,VWS V14.00,2013-07-21 06:42:00,
2013-07-20 23:47:00,63.6,56.6,29.94,NNW,329,0.0,1.0,78,0.00,,---,0.00,VWS V14.00,2013-07-21 06:47:00,
2013-07-20 23:52:00,63.5,56.5,29.94,NNW,329,0.0,1.0,78,0.00,,---,0.00,VWS V14.00,2013-07-21 06:52:00,
2013-07-20 23:57:00,63.4,56.1,29.94,NNW,329,1.0,2.0,77,0.00,,---,0.00,VWS V14.00,2013-07-21 06:57:00,